TimeHST,TemperatureF,Dew PointF,Humidity,Sea Level PressureIn,VisibilityMPH,Wind Direction,Wind SpeedMPH,Gust SpeedMPH,PrecipitationIn,Events,Conditions,WindDirDegrees,DateUTC
12:11 AM,73.0,66.0,79,30.05,10.0,Calm,Calm,-,N/A,,Overcast,0,2013-09-20 10:11:00
12:23 AM,72.0,66.0,81,30.05,10.0,SSW,4.6,-,N/A,,Overcast,200,2013-09-20 10:23:00
12:53 AM,71.1,66.0,84,30.04,10.0,SW,3.5,-,N/A,,Scattered Clouds,220,2013-09-20 10:53:00
1:48 AM,71.6,66.2,83,30.03,10.0,WSW,5.8,-,N/A,,Mostly Cloudy,240,2013-09-20 11:48:00
1:53 AM,71.1,64.9,81,30.02,10.0,WSW,5.8,-,N/A,,Mostly Cloudy,240,2013-09-20 11:53:00
2:53 AM,72.0,64.9,78,30.01,10.0,SW,4.6,-,N/A,,Mostly Cloudy,230,2013-09-20 12:53:00
3:53 AM,72.0,64.9,78,30.01,10.0,SW,5.8,-,N/A,,Overcast,230,2013-09-20 13:53:00
4:01 AM,72.0,64.9,78,30.01,10.0,SW,3.5,-,0.00,Rain,Light Rain,230,2013-09-20 14:01:00
4:43 AM,71.1,66.0,84,30.02,10.0,SW,5.8,-,0.02,,Mostly Cloudy,230,2013-09-20 14:43:00
4:53 AM,70.0,66.0,87,30.02,10.0,WSW,6.9,-,0.02,,Scattered Clouds,250,2013-09-20 14:53:00
5:53 AM,70.0,64.0,81,30.03,10.0,WSW,5.8,-,N/A,,Scattered Clouds,240,2013-09-20 15:53:00
6:53 AM,71.1,63.0,75,30.03,10.0,WSW,3.5,-,N/A,,Scattered Clouds,250,2013-09-20 16:53:00
7:53 AM,73.9,66.0,76,30.05,10.0,SW,3.5,-,N/A,,Mostly Cloudy,230,2013-09-20 17:53:00
8:35 AM,73.0,66.9,81,30.08,1.8,ENE,5.8,19.6,0.00,Rain,Heavy Rain,60,2013-09-20 18:35:00
8:47 AM,73.4,68.0,83,30.07,3.0,West,8.1,-,0.16,Rain,Light Rain,270,2013-09-20 18:47:00
8:53 AM,73.9,66.9,79,30.06,9.0,West,9.2,-,0.17,Rain,Light Rain,280,2013-09-20 18:53:00
9:53 AM,77.0,66.0,69,30.07,10.0,West,11.5,-,0.00,,Overcast,270,2013-09-20 19:53:00
10:53 AM,82.9,64.9,54,30.06,10.0,NNW,6.9,-,N/A,,Scattered Clouds,340,2013-09-20 20:53:00
11:53 AM,82.9,66.0,56,30.04,10.0,NNW,9.2,-,N/A,,Mostly Cloudy,330,2013-09-20 21:53:00
12:53 PM,75.9,68.0,76,30.03,5.0,Variable,3.5,-,0.02,Rain,Light Rain,0,2013-09-20 22:53:00
1:53 PM,82.0,66.9,60,30.00,10.0,NE,8.1,-,0.00,,Mostly Cloudy,40,2013-09-20 23:53:00
2:53 PM,84.0,64.9,53,29.99,10.0,North,8.1,-,N/A,,Scattered Clouds,360,2013-09-21 00:53:00
3:53 PM,82.9,66.0,56,29.99,10.0,Variable,5.8,-,N/A,,Scattered Clouds,0,2013-09-21 01:53:00
4:53 PM,79.0,66.0,64,30.00,10.0,NNE,8.1,-,0.00,Rain,Light Rain,30,2013-09-21 02:53:00
5:53 PM,77.0,64.9,66,30.01,10.0,WNW,6.9,-,0.00,,Mostly Cloudy,290,2013-09-21 03:53:00
6:53 PM,75.9,64.9,69,30.02,10.0,West,5.8,-,N/A,,Mostly Cloudy,270,2013-09-21 04:53:00
7:53 PM,75.9,64.0,67,30.04,10.0,WSW,3.5,-,N/A,,Mostly Cloudy,240,2013-09-21 05:53:00
8:53 PM,73.9,64.9,73,30.05,10.0,WNW,3.5,-,N/A,,Mostly Cloudy,300,2013-09-21 06:53:00
11:53 PM,71.1,66.0,84,30.05,10.0,WSW,9.2,-,N/A,,Mostly Cloudy,250,2013-09-21 09:53:00